Wind_Speed
65 67 69 72 73 71 66 62 59 59 59 57 51 45 42 43 49 55 61 69 75 83 90 92 91 87 86 82 79 85 85 77 73 71 69 72 74 75 74 74 75 75 75 77 84 90 91 91 90 89 88 88 87 86 85 84 83 82 80 79 78 77 76 76 76 77 76 75 73 73 73 73 72 72 71 69 69 68 68 68 67 67 67 67 67
64 66 68 71 73 71 67 62 58 57 59 55 47 40 36 37 44 52 60 71 77 82 89 91 87 82 82 84 82 86 92 86 76 68 65 66 71 74 72 71 70 71 71 71 77 84 90 92 91 90 89 88 88 87 86 84 83 83 82 81 80 79 78 77 77 77 76 75 74 74 73 73 73 72 72 70 69 69 69 69 69 68 69 69 69
63 64 67 69 72 72 68 62 57 57 58 54 43 35 32 33 40 50 62 76 84 84 85 84 78 72 72 77 80 85 92 93 83 72 67 63 64 71 74 74 72 72 72 72 74 78 84 89 91 92 91 90 89 88 87 86 85 84 83 82 81 80 79 78 78 77 76 76 75 74 73 73 73 72 72 71 70 69 69 69 69 69 69 70 69
62 63 64 67 70 72 69 62 57 56 58 52 39 31 29 30 36 49 62 79 88 86 82 80 77 72 71 73 75 79 86 94 92 81 74 67 62 65 70 75 77 77 77 77 76 76 77 82 88 91 92 92 91 90 89 87 86 86 84 83 83 82 81 81 80 78 77 77 76 75 74 73 73 73 73 72 70 70 69 69 70 70 71 71 71
60 61 62 65 68 71 69 63 57 55 57 50 36 28 27 28 35 49 63 81 89 87 86 84 81 80 79 76 75 75 78 87 95 91 81 73 67 63 64 69 74 76 78 80 81 80 77 77 81 85 89 91 92 92 91 90 89 87 86 85 84 84 83 82 81 80 79 79 78 77 75 74 74 74 73 71 70 69 70 71 72 73 74 75 76
59 59 60 62 66 69 68 63 58 54 56 49 33 25 26 27 36 50 66 81 87 88 93 94 91 90 87 82 78 76 75 79 88 89 78 71 70 68 64 65 69 70 72 75 79 81 80 78 78 79 82 85 89 92 92 91 90 88 87 87 86 85 84 83 82 83 83 81 80 79 78 77 77 76 74 72 72 72 73 74 75 76 78 79 80
57 58 59 60 63 67 67 63 58 53 54 48 32 23 23 27 37 53 68 80 85 89 97 99 98 98 93 86 80 75 72 73 78 79 74 68 69 72 67 64 66 68 71 73 74 76 77 78 78 78 79 81 85 90 91 91 91 90 89 87 86 85 83 83 83 84 84 83 82 82 80 81 81 80 78 77 77 77 77 78 79 81 82 82 82
56 56 57 58 60 64 65 63 58 52 52 48 33 21 20 26 37 54 69 80 85 88 94 94 93 94 91 83 78 74 71 71 75 79 81 76 70 69 67 64 65 67 72 74 74 74 74 74 76 77 79 81 84 88 90 92 93 92 90 88 86 85 84 84 85 85 85 85 85 84 83 83 83 83 82 82 82 82 82 83 84 85 84 84 83
55 55 55 56 56 60 63 62 58 52 50 48 36 21 16 24 36 52 67 79 83 84 89 88 85 86 84 80 78 75 72 74 76 79 84 82 75 71 67 64 65 66 70 74 74 75 75 75 75 75 77 80 82 84 87 90 93 93 92 90 88 87 87 87 86 86 86 86 86 86 86 86 86 86 86 85 85 85 86 87 87 86 86 85 84
54 54 53 53 54 56 59 60 58 52 48 46 38 24 13 22 37 51 65 76 80 81 85 86 87 86 83 81 81 76 72 74 78 79 79 78 76 75 70 65 65 64 67 72 74 75 76 77 78 78 78 78 78 79 81 84 88 91 91 91 90 90 89 88 87 87 87 87 87 87 88 88 89 89 88 88 88 88 88 88 88 87 86 86 84
53 52 51 51 51 53 56 58 57 52 46 44 39 28 12 21 43 55 64 74 80 83 84 84 87 88 84 82 83 80 75 76 79 79 77 74 73 74 72 69 70 69 67 70 72 72 74 77 81 83 82 80 78 77 76 77 80 84 88 89 90 89 89 88 88 88 87 87 87 88 88 89 90 90 90 90 89 89 89 88 87 86 86 85 84
51 51 50 49 48 50 52 54 55 51 46 42 39 31 15 17 48 64 68 75 82 83 82 82 84 86 86 85 84 82 78 78 80 80 79 77 75 75 74 73 76 76 72 70 71 74 76 78 82 86 87 85 82 80 79 78 79 81 84 86 86 86 86 86 86 87 87 87 88 89 89 89 90 90 90 90 89 89 88 86 86 85 85 83 81
51 50 49 47 46 47 49 50 52 50 45 40 37 32 21 7 43 68 76 79 82 82 79 81 82 84 88 89 87 84 81 82 83 81 81 82 80 80 78 75 77 78 76 73 73 74 77 78 81 85 88 88 88 86 85 85 84 84 86 87 87 86 85 85 85 86 86 86 87 87 87 87 88 88 88 87 87 86 86 85 84 83 82 81 80
50 50 48 46 44 44 46 47 48 48 45 40 35 30 25 8 26 59 77 81 83 84 81 81 79 79 83 86 86 84 81 82 85 84 84 85 83 83 81 77 75 76 78 78 77 76 76 78 80 83 85 86 88 90 91 90 89 88 89 90 90 90 89 88 87 86 86 86 86 85 85 84 84 84 84 84 85 85 85 84 83 82 81 81 81
50 50 48 45 43 42 43 44 45 45 45 40 34 29 25 16 7 39 67 80 86 89 89 89 86 81 79 80 81 81 80 81 84 86 88 88 85 83 81 79 77 76 77 80 82 81 79 79 80 81 82 83 85 88 92 93 93 91 91 91 91 92 92 90 89 88 87 86 85 85 84 84 84 84 85 85 85 85 84 83 83 82 82 81 81
51 50 48 45 42 40 39 41 42 42 42 40 35 28 23 19 8 18 48 71 84 90 92 95 97 93 88 85 82 82 83 83 85 88 89 89 86 83 80 80 82 82 80 81 83 83 82 82 83 82 82 82 82 85 89 92 94 95 95 94 93 92 92 91 91 90 90 88 88 87 87 87 87 86 86 85 84 83 83 82 82 82 81 81 82
52 51 49 45 42 39 37 37 39 40 39 39 36 31 23 18 13 4 27 55 76 88 92 94 97 96 93 94 91 88 88 88 89 91 91 91 91 88 84 81 82 84 85 85 85 85 84 85 85 85 84 84 84 84 85 87 90 92 95 96 95 95 93 92 92 92 92 91 91 91 91 90 89 88 86 85 83 82 82 81 81 81 82 82 82
52 51 48 45 42 38 35 34 35 36 37 36 35 33 26 19 13 8 9 32 60 82 91 92 94 94 94 98 99 96 95 95 95 95 96 97 98 96 93 89 86 85 86 87 86 86 86 86 87 87 87 86 85 86 86 86 86 87 89 91 93 94 95 95 95 94 94 93 92 92 91 90 89 88 87 85 84 83 82 83 83 84 84 84 85
52 51 47 44 42 38 35 33 32 33 34 35 34 33 30 23 16 11 6 12 35 65 86 92 94 94 95 99 102 101 99 98 96 96 98 101 101 101 100 98 95 93 92 91 88 87 87 88 89 90 90 88 86 86 86 87 87 87 87 88 89 90 91 93 94 94 94 94 94 93 91 90 89 88 88 86 85 84 85 86 87 87 87 87 88
53 50 46 43 41 38 35 33 32 31 32 33 33 31 31 27 22 16 11 8 14 36 63 83 93 98 98 98 100 100 99 97 93 92 96 99 100 101 102 103 102 100 99 98 95 93 92 92 93 93 92 92 91 89 88 87 88 89 89 88 88 89 89 89 90 91 92 92 92 92 91 90 89 90 89 88 86 87 89 90 90 90 90 90 89
53 49 45 43 41 38 35 33 31 31 30 31 31 31 30 29 26 22 17 14 12 16 31 51 71 86 96 100 101 101 100 99 95 92 93 95 95 97 100 103 105 104 103 103 101 100 100 98 97 97 95 94 94 95 94 92 91 91 91 91 91 91 90 90 90 90 90 90 90 90 90 90 90 91 91 90 89 90 92 93 93 93 92 92 91
51 47 44 42 40 38 35 33 32 31 30 30 30 30 30 29 28 26 23 20 18 16 18 26 38 54 70 85 95 100 103 105 105 103 102 101 98 98 100 102 104 105 107 107 106 106 105 104 103 103 102 100 98 97 97 97 96 95 94 94 94 93 93 92 92 91 91 91 91 91 91 91 92 94 94 93 92 93 94 94 94 93 93 92 91
49 46 44 41 39 38 36 34 33 32 31 31 29 29 29 29 29 29 27 25 22 21 21 22 26 33 43 55 68 79 88 96 102 106 109 110 110 109 109 110 111 112 114 115 114 114 112 110 108 109 110 110 107 103 101 100 99 99 99 98 97 96 96 95 94 93 92 91 91 91 91 92 93 95 95 93 92 93 93 93 93 92 92 91 89
48 46 44 41 40 39 38 36 35 34 33 32 31 29 29 29 30 30 30 29 27 26 25 26 27 29 33 39 46 55 65 75 84 92 99 105 109 112 115 116 118 120 120 120 120 119 119 117 115 114 114 115 115 114 112 108 106 104 104 103 102 101 99 97 96 95 94 92 90 89 89 90 91 93 94 92 90 91 92 91 91 90 89 88 88
47 45 44 42 40 39 39 38 37 36 35 34 33 31 30 30 30 31 32 32 31 30 30 30 30 31 33 35 39 44 51 59 67 75 84 91 98 103 107 111 114 117 119 120 121 121 122 122 122 122 122 122 122 123 123 121 118 115 112 109 107 106 104 102 100 99 97 94 91 88 88 88 88 90 92 90 89 89 90 89 88 87 88 88 89
45 44 43 41 39 38 40 40 39 38 37 35 34 33 32 32 32 32 34 34 33 33 33 33 34 34 36 37 38 41 45 50 55 62 69 76 84 91 96 101 105 109 113 117 119 121 122 123 124 125 126 127 129 130 129 128 127 125 122 118 114 112 110 109 106 102 100 97 93 90 88 87 86 87 89 89 87 87 88 88 88 87 88 88 87
43 43 42 40 38 38 38 40 40 40 39 37 36 36 35 35 35 35 36 36 36 36 35 35 36 37 38 39 41 42 44 47 50 54 58 63 69 75 81 87 92 97 102 107 111 114 116 118 120 121 122 124 126 129 131 133 132 129 125 121 118 116 114 113 111 108 104 100 97 93 90 88 86 86 87 88 86 85 86 87 87 87 86 85 84
45 43 41 39 39 39 38 39 40 41 41 39 38 38 37 37 37 38 38 39 39 39 39 38 38 39 41 42 44 45 46 48 51 53 56 59 62 65 69 73 78 82 87 92 97 102 106 108 110 110 111 112 115 118 122 128 133 134 130 123 119 116 116 115 113 112 110 106 102 98 94 90 88 87 86 86 86 84 84 85 84 82 81 80 78
48 44 42 41 41 41 39 39 40 42 42 42 41 40 40 40 40 40 41 41 42 42 42 42 42 42 43 44 46 47 49 51 53 55 58 60 62 65 67 70 73 76 79 83 87 92 97 99 100 100 100 101 103 106 109 115 123 130 134 132 125 119 116 116 113 112 112 111 108 104 100 95 91 88 86 85 86 84 82 82 81 80 79 77 77
48 45 43 43 43 42 41 39 40 42 43 43 43 43 43 43 43 43 43 44 45 45 45 45 45 46 46 47 47 49 50 52 55 57 60 62 64 66 69 72 74 77 80 83 87 91 95 97 98 98 99 100 101 102 105 106 110 117 125 132 133 128 121 116 114 111 110 111 110 107 104 99 93 89 87 86 87 86 83 82 82 81 79 78 77
47 46 44 43 43 43 43 41 41 42 44 44 44 44 45 45 45 46 46 46 47 47 48 48 48 49 50 50 51 51 52 53 55 57 60 62 64 67 70 72 75 78 80 84 87 91 94 96 98 98 99 101 102 104 107 108 108 109 112 120 130 134 130 120 113 110 107 108 110 107 104 102 97 91 89 88 88 87 85 85 85 84 82 79 76
46 45 43 42 43 44 45 43 42 43 44 45 45 45 46 46 47 48 48 49 49 49 50 50 51 52 52 53 54 54 55 55 56 58 60 62 64 66 69 71 73 76 78 81 84 87 88 90 92 94 96 97 100 103 107 110 111 111 109 110 117 129 135 131 120 111 107 106 109 109 105 103 100 96 92 90 89 88 88 89 89 88 84 80 77
46 44 43 43 44 45 45 43 43 43 43 44 45 45 46 47 48 49 49 50 51 51 52 52 52 53 54 56 57 57 58 59 59 60 62 63 65 67 69 71 72 74 75 77 79 80 81 82 85 87 89 92 96 100 103 107 109 110 110 110 110 117 129 136 132 122 113 107 107 108 106 103 100 98 95 93 91 90 91 92 93 90 85 81 79
49 46 45 44 44 45 45 44 43 42 42 43 44 44 44 45 47 48 49 50 51 53 54 54 54 55 56 57 58 59 60 61 62 63 63 65 66 68 70 71 72 73 73 74 74 74 74 75 78 81 83 86 90 95 97 101 104 105 107 110 111 112 118 129 135 131 121 111 105 104 104 103 101 98 96 94 93 92 93 94 94 91 86 83 82
52 48 46 45 45 46 46 45 44 43 42 42 42 42 42 43 45 47 48 49 51 52 53 55 56 56 56 57 58 59 60 61 62 63 64 65 67 68 71 72 73 73 72 71 69 68 69 70 72 75 77 80 84 87 90 93 95 97 99 105 111 111 112 119 129 132 126 115 107 102 101 102 101 99 97 95 95 96 96 96 94 91 89 86 86
55 52 50 48 47 47 46 44 43 43 43 42 42 42 42 42 43 44 45 47 49 51 52 54 55 56 56 57 58 58 59 60 62 63 64 65 67 68 71 72 73 72 71 68 65 64 64 65 67 70 71 73 76 79 81 84 86 87 91 98 106 109 109 112 122 130 128 119 109 103 100 100 100 100 99 98 99 100 100 97 94 92 91 90 89
61 57 53 50 48 48 46 44 43 43 42 41 41 41 41 41 41 42 44 47 49 50 52 53 54 55 55 56 56 56 57 58 60 61 62 63 65 67 69 72 72 72 70 67 63 62 62 63 65 66 67 67 69 70 72 75 78 79 83 90 98 104 106 108 115 126 129 122 111 104 100 98 97 98 100 101 101 102 101 98 96 95 93 91 90
64 60 55 53 51 50 48 46 46 45 43 42 41 42 43 44 43 44 45 47 48 50 51 52 52 53 53 53 53 53 53 55 56 58 59 61 62 64 67 69 71 70 69 66 63 61 61 61 62 62 61 60 61 62 65 68 71 73 77 84 91 98 104 106 110 121 129 124 113 105 101 98 95 95 98 99 99 98 97 96 95 95 93 91 88
66 63 61 58 56 53 52 50 49 48 46 44 44 45 46 46 46 46 47 48 49 50 50 50 49 50 49 49 49 49 50 52 53 55 57 58 59 61 63 66 69 68 67 65 62 60 60 59 58 56 54 54 55 57 59 62 65 69 73 78 86 94 101 103 105 116 127 127 117 107 102 99 95 93 94 95 95 95 94 94 94 93 91 89 86
69 67 65 63 61 59 57 55 53 50 48 47 47 47 48 47 47 48 48 48 49 49 48 47 46 46 46 45 45 45 47 48 50 51 53 55 56 58 60 63 66 67 65 63 60 59 58 57 54 50 48 49 50 52 55 58 61 64 68 74 82 90 96 100 103 111 122 127 123 113 106 103 99 94 92 92 92 93 93 93 92 91 90 88 86
72 71 69 67 66 63 61 59 57 54 52 50 49 49 50 49 49 49 49 49 49 48 48 47 46 45 44 43 43 43 44 45 46 48 49 50 52 54 57 60 64 65 64 62 59 57 56 55 50 45 44 45 46 48 51 53 55 58 63 70 77 85 93 99 103 107 115 124 126 120 112 107 102 97 93 92 92 92 92 92 92 91 90 90 89
75 73 72 70 68 66 65 63 61 58 56 53 52 52 52 51 51 51 51 51 51 50 49 48 46 45 44 44 44 44 43 44 44 45 47 47 49 52 54 57 61 63 62 61 58 55 54 52 47 41 40 40 41 43 45 47 50 55 62 68 75 83 92 99 101 103 110 119 125 124 117 110 103 99 96 94 93 93 92 92 92 92 91 91 91
77 76 74 72 70 69 68 66 64 62 60 57 56 56 54 54 54 54 52 54 55 52 49 48 47 46 46 45 44 44 44 43 43 44 45 46 47 50 52 54 57 60 61 60 58 54 52 50 44 39 36 36 36 37 39 41 46 54 61 68 75 84 92 96 97 102 108 116 123 126 122 115 107 101 98 96 94 94 94 93 92 92 93 92 91
80 78 76 75 73 71 70 69 68 66 64 61 60 59 58 57 58 56 55 57 59 55 50 48 47 47 47 45 45 45 45 44 43 42 44 46 47 48 51 52 54 57 59 59 57 54 52 49 43 37 33 31 30 31 34 39 44 52 60 67 75 84 90 92 95 102 108 114 122 126 125 121 114 106 102 100 98 96 96 95 93 93 92 92 91
81 79 78 76 75 74 73 72 71 70 68 65 63 62 61 61 61 58 58 60 61 57 53 50 48 48 47 46 46 45 45 44 43 41 43 46 47 47 49 50 51 53 56 57 57 55 52 49 44 37 32 28 26 27 32 37 43 49 56 64 72 81 86 87 91 100 107 113 121 125 125 123 119 113 107 104 103 101 99 97 97 96 94 93 92
81 80 79 77 77 77 76 76 74 73 71 69 67 66 66 65 64 62 61 62 62 60 56 52 50 49 48 46 46 46 45 44 43 41 42 44 46 47 48 48 48 50 52 54 56 55 53 49 45 38 32 27 24 24 27 34 41 47 53 61 69 76 80 81 85 95 105 112 119 124 124 124 123 121 114 108 104 104 103 101 100 100 100 99 98
82 81 80 79 79 80 80 79 78 76 73 72 70 70 69 68 67 65 64 64 64 63 59 55 52 50 48 46 46 47 46 44 43 41 41 42 44 45 46 47 46 46 48 50 53 54 53 50 46 40 34 28 25 22 23 29 37 44 52 60 67 71 76 79 84 92 102 110 117 122 125 124 125 125 121 115 108 103 100 99 97 96 97 98 98
84 83 82 81 82 83 83 82 80 78 76 74 73 73 72 71 69 68 67 66 66 65 62 58 54 52 50 47 46 48 48 46 44 42 41 41 43 44 45 45 44 43 44 46 48 51 51 49 46 42 35 30 26 23 22 25 32 41 49 56 62 67 72 79 84 90 98 107 114 121 126 128 127 125 123 120 115 109 103 100 98 96 96 95 96
86 85 84 83 85 86 85 84 82 80 78 77 76 76 74 73 72 71 70 69 68 68 66 62 58 54 52 49 48 49 49 47 45 43 41 40 41 42 43 44 43 41 40 41 44 46 47 46 45 42 37 32 28 25 23 24 27 35 44 51 56 61 68 76 83 88 95 104 111 119 125 130 131 129 126 123 121 118 115 111 107 105 103 101 99
88 86 85 85 87 87 87 86 85 83 81 79 79 78 76 75 74 74 73 72 71 70 69 66 61 57 54 53 52 51 51 49 46 44 43 41 40 41 43 43 41 39 38 38 39 41 43 42 42 40 37 32 28 25 23 22 23 28 37 45 50 55 61 70 79 86 94 102 110 117 123 127 130 131 130 128 125 123 121 119 116 113 111 109 107
90 89 87 87 88 88 88 87 86 85 84 83 82 80 78 77 76 76 75 74 73 73 72 70 65 61 58 57 56 55 54 52 49 46 44 42 39 39 42 42 40 38 36 35 36 37 38 38 38 38 36 33 28 24 22 21 21 25 32 40 46 51 57 65 74 85 93 101 108 114 119 124 128 130 130 130 129 126 123 121 119 117 116 115 114
Wind_Direction
299 301 302 303 305 308 313 319 319 313 311 307 298 282 263 248 237 228 219 216 214 207 206 211 214 212 213 218 221 219 217 222 229 231 230 228 227 228 230 231 232 234 236 238 238 237 237 238 239 239 240 241 242 243 244 245 245 246 247 248 249 251 252 253 255 256 258 259 260 261 262 263 264 264 265 265 266 267 268 269 270 270 271 272 273
301 303 304 305 307 311 316 321 322 318 317 313 302 283 261 245 232 222 212 208 211 208 205 210 214 212 214 218 221 219 217 221 226 228 229 227 225 226 229 232 234 235 237 239 240 239 238 239 240 240 240 241 242 243 244 245 245 246 246 247 248 249 251 252 254 255 257 258 259 260 261 263 264 264 265 265 266 267 268 269 270 270 271 271 272
303 304 306 308 309 312 317 323 326 323 322 318 304 284 262 244 228 218 208 203 207 209 204 208 212 209 210 216 218 217 217 221 224 225 228 230 229 229 230 234 236 238 238 238 239 240 240 240 241 240 240 241 242 243 244 245 245 246 246 247 247 248 249 251 252 254 256 257 258 259 259 261 262 263 264 265 266 267 268 270 270 270 270 270 270
305 307 308 309 310 313 317 324 329 327 327 322 307 287 266 244 225 215 206 200 205 207 201 204 210 206 205 212 215 216 218 221 224 226 228 231 234 234 234 235 237 240 240 240 239 239 240 242 243 242 241 241 242 243 244 245 245 246 246 247 247 248 248 249 250 252 254 256 257 258 258 260 261 262 263 264 265 267 268 269 269 268 268 268 268
308 308 309 310 311 313 317 325 330 331 331 325 311 293 270 242 220 212 203 199 203 203 196 199 204 202 202 207 212 216 218 221 223 226 229 232 233 235 234 234 235 237 239 239 238 238 238 240 243 244 244 243 243 243 244 244 245 246 247 247 247 247 248 249 250 251 252 253 255 256 257 258 259 260 261 263 264 265 266 266 266 266 266 266 267
309 309 310 311 312 313 317 325 331 334 335 329 318 299 271 239 215 207 201 200 202 201 196 197 200 201 203 207 214 219 220 222 225 226 229 232 233 232 232 233 232 233 236 238 238 238 237 238 240 243 244 245 245 245 245 245 245 246 247 247 248 248 248 249 250 250 251 252 253 254 255 256 257 258 259 260 261 262 263 263 264 264 265 267 268
309 309 310 311 312 314 317 324 331 335 338 334 326 306 270 235 212 204 200 199 201 200 200 201 203 205 208 212 217 217 217 223 226 225 225 228 232 232 233 234 233 232 235 238 239 239 239 239 240 241 242 244 245 245 245 245 246 246 247 248 249 249 250 250 250 250 251 251 252 252 253 254 256 256 257 258 259 260 261 262 263 264 265 267 269
309 309 310 311 313 315 317 323 330 336 340 338 334 317 270 232 211 204 200 198 198 199 202 205 207 209 211 212 213 212 214 221 226 225 225 226 228 231 233 234 235 233 232 236 240 241 240 240 241 242 243 243 245 245 245 244 244 245 246 247 248 249 249 249 249 250 251 251 251 252 252 254 255 256 257 258 258 259 261 262 263 265 267 268 270
310 310 310 311 313 315 317 321 328 335 341 342 341 331 276 230 210 205 201 196 195 198 201 206 208 209 211 211 208 209 212 216 221 226 230 229 228 229 230 230 232 232 231 233 238 240 240 239 240 241 242 243 244 245 246 246 245 245 245 246 247 248 248 249 249 250 251 252 252 253 253 254 255 256 256 257 258 259 261 262 264 266 268 269 270
310 310 310 311 313 315 317 320 326 333 340 343 346 343 291 227 207 205 203 195 193 195 198 203 207 208 210 210 208 208 210 213 218 224 230 232 232 232 233 233 232 232 231 231 234 238 240 240 240 240 240 241 242 244 245 247 247 246 245 246 247 247 248 249 250 250 251 252 253 254 254 255 256 256 257 258 259 260 261 263 265 267 268 269 269
310 310 309 310 312 314 316 318 323 330 338 343 349 353 321 219 200 201 201 195 192 194 197 201 206 206 206 209 209 209 210 213 217 222 226 229 229 229 232 235 235 235 235 233 233 236 238 239 239 239 239 239 240 242 244 246 247 247 246 245 246 247 248 249 250 250 251 252 253 254 255 255 256 257 257 258 259 261 262 264 265 266 267 268 269
310 310 309 309 311 313 315 317 320 326 335 341 348 358 351 214 196 195 196 194 193 195 197 200 204 205 205 207 208 209 213 216 217 221 223 223 224 224 226 230 233 234 235 234 233 234 234 236 237 238 238 238 239 240 242 243 245 247 247 245 245 246 248 249 250 250 251 252 253 254 254 255 256 257 258 259 260 261 263 264 265 266 267 268 269
309 309 308 307 309 311 313 315 318 322 330 337 344 357 4 229 199 195 195 195 196 196 196 197 202 206 208 210 213 216 220 220 219 220 221 220 222 222 222 226 229 229 230 229 230 232 233 235 238 239 239 239 240 241 242 242 242 244 246 246 245 245 247 248 249 250 251 252 253 254 255 256 256 257 258 259 260 261 263 264 264 265 266 268 268
307 307 307 305 305 308 310 313 315 319 325 332 339 349 3 357 205 200 200 201 201 199 197 198 202 206 210 215 220 222 221 218 217 219 220 220 222 222 222 225 228 228 228 227 228 230 233 236 239 243 243 242 242 243 244 245 245 245 247 248 248 248 248 248 249 250 251 251 252 253 254 255 256 257 258 259 260 261 262 262 263 265 267 268 268
305 306 305 302 302 304 307 310 312 315 320 326 333 341 355 4 224 205 205 206 207 207 206 205 207 208 212 218 220 220 217 215 216 218 220 222 222 222 224 226 227 228 228 229 229 231 234 237 240 244 246 246 245 245 246 247 248 249 250 251 251 251 250 249 249 250 250 251 251 252 253 254 255 257 258 259 259 260 261 263 264 266 267 268 269
303 304 303 300 298 299 303 306 308 311 315 319 325 331 343 357 350 212 209 209 211 213 213 212 213 214 216 218 217 218 217 216 217 219 221 223 223 223 225 227 227 228 229 231 233 234 237 237 238 241 245 248 248 248 248 248 249 250 251 252 253 253 253 252 251 250 250 251 251 252 253 254 256 257 258 258 259 260 262 264 265 267 267 268 270
301 302 300 297 294 294 297 301 303 307 310 313 318 322 328 342 351 267 214 212 212 214 216 217 218 218 218 217 217 218 218 218 220 222 223 225 225 225 226 228 230 231 232 235 238 241 242 240 238 239 242 246 248 249 250 249 249 249 250 251 252 254 254 254 253 253 252 252 252 253 254 255 256 257 257 258 259 260 262 264 266 267 268 269 270
299 299 297 294 291 290 291 295 298 301 305 308 311 314 317 322 332 332 232 216 213 212 214 217 219 219 218 217 218 219 221 222 224 226 226 227 228 228 228 229 231 232 234 237 241 244 244 242 239 239 242 244 246 248 250 251 251 251 251 251 251 253 254 255 256 256 257 256 256 256 256 257 257 257 257 258 259 261 262 264 265 266 267 269 270
297 296 294 290 287 286 286 288 291 295 299 302 304 307 310 311 311 313 293 227 215 213 213 214 216 217 217 218 220 222 224 225 227 229 230 230 231 232 231 230 232 233 235 237 240 242 243 243 242 242 241 242 244 246 249 251 252 252 252 252 252 253 253 254 256 257 258 259 259 259 259 259 259 258 259 259 260 262 263 265 266 268 269 270 271
295 293 290 287 284 282 281 282 285 288 291 295 298 300 302 303 303 298 290 264 225 215 214 215 217 219 221 223 224 225 225 225 226 229 231 232 233 233 233 233 234 235 237 238 240 242 243 244 244 243 241 241 241 243 246 248 251 252 253 253 254 254 254 254 254 255 256 257 258 259 260 260 260 261 261 262 263 265 267 268 269 270 271 271 272
292 289 287 284 281 277 275 276 279 283 285 288 290 293 295 296 296 294 286 272 253 228 219 218 220 222 224 225 226 227 228 228 228 229 230 233 235 234 234 235 237 238 239 240 242 244 245 246 245 243 242 242 242 243 244 246 248 251 253 253 253 254 254 254 254 254 255 255 256 257 257 258 260 261 262 263 265 267 268 269 270 270 271 271 272
288 286 284 282 278 273 270 271 273 276 278 280 282 285 288 289 289 288 285 275 263 250 237 228 224 224 225 226 227 229 231 233 234 234 234 235 236 237 237 238 239 241 242 244 246 246 247 247 247 246 246 246 245 245 246 247 248 249 251 253 254 254 254 254 254 254 254 254 255 255 256 257 258 260 261 263 264 266 267 268 268 269 269 270 270
283 282 282 281 276 270 266 266 268 270 271 273 274 277 279 282 284 283 280 275 267 258 250 243 237 232 229 228 229 230 231 233 235 237 238 239 240 240 241 242 243 244 246 248 248 248 247 248 249 250 251 251 250 248 247 248 249 249 250 251 253 254 254 254 255 255 254 254 254 255 255 256 257 259 261 262 263 264 265 266 267 268 268 268 269
280 280 280 278 274 268 264 263 265 266 267 268 268 269 271 273 276 277 277 274 269 262 254 249 246 243 240 237 235 234 234 234 235 236 238 239 241 242 243 245 246 247 249 249 249 249 249 249 250 251 253 254 253 252 250 249 249 250 250 250 251 252 253 254 255 255 255 254 254 254 254 255 256 258 259 260 261 262 263 264 266 266 266 267 268
279 280 278 276 272 267 263 262 263 262 263 265 265 265 264 265 267 269 271 271 268 264 259 254 249 246 245 243 242 240 238 238 238 238 239 240 241 242 243 245 246 247 248 248 248 249 249 250 251 252 253 254 254 254 253 251 250 250 250 250 250 250 251 252 254 254 255 255 254 253 253 253 254 255 257 258 259 260 261 262 263 264 266 267 268
278 278 276 273 270 266 263 261 261 259 260 262 263 263 262 261 261 262 263 264 264 262 260 258 254 251 249 247 245 244 243 242 242 242 242 242 243 244 245 246 247 247 248 248 249 249 250 250 251 251 251 252 252 252 253 252 251 250 248 248 249 250 250 251 251 253 254 254 254 253 252 252 253 254 255 257 257 258 259 260 261 263 265 267 269
276 274 273 270 269 266 263 261 260 258 258 259 260 260 260 260 259 258 258 259 259 258 257 255 255 255 253 252 250 248 247 246 246 245 245 245 245 246 246 247 247 248 248 248 249 249 250 250 251 251 251 250 250 249 249 249 249 249 247 247 247 248 249 250 250 250 252 253 253 252 252 252 252 253 254 256 257 257 258 259 261 262 264 265 267
275 272 271 270 268 268 266 263 260 258 258 258 258 258 257 258 259 257 256 255 255 256 255 253 252 252 252 252 252 252 252 251 251 250 249 249 249 249 249 249 250 250 250 250 251 251 252 253 253 254 255 255 255 254 252 249 248 247 246 245 245 245 247 248 249 249 250 251 252 252 252 252 252 252 253 255 256 256 257 259 260 261 262 263 264
275 273 272 270 268 269 268 265 262 260 259 258 257 255 255 256 257 257 256 254 253 253 253 253 252 252 252 251 251 251 251 252 252 253 253 253 253 252 252 252 252 252 253 253 254 254 256 257 259 260 261 261 261 261 259 256 252 249 246 244 242 243 244 245 247 248 249 250 251 251 251 251 252 252 252 252 254 255 256 257 258 259 260 260 261
275 274 272 270 269 268 268 266 263 261 259 258 255 253 252 254 255 255 255 254 253 252 252 252 252 253 253 253 253 252 252 252 252 253 254 254 254 255 254 254 254 254 254 254 255 256 258 260 261 263 263 264 263 263 262 260 257 253 250 246 243 240 240 242 243 245 247 249 249 250 250 250 250 250 250 250 252 253 255 256 256 257 258 258 260
273 272 271 271 270 269 267 266 264 262 259 257 255 253 253 253 254 254 254 254 254 253 252 252 252 253 254 254 255 255 256 256 256 256 256 257 257 257 257 257 257 257 257 257 257 258 259 261 262 263 263 263 263 263 262 261 259 256 253 249 245 240 238 237 239 241 243 246 248 248 248 248 248 248 249 249 250 252 253 254 255 255 256 257 260
269 271 272 272 272 270 269 268 267 264 261 259 257 256 255 254 255 254 254 254 255 255 254 254 253 254 255 255 256 257 258 259 259 260 261 261 262 262 262 262 262 262 262 262 262 263 264 264 265 264 263 263 262 261 261 260 259 257 254 250 246 242 238 235 235 237 240 244 247 247 247 247 246 246 247 248 249 251 252 252 253 254 255 257 259
270 272 271 270 270 271 271 271 270 268 265 262 260 259 257 256 256 255 255 255 256 257 257 257 256 256 256 257 257 258 259 260 262 263 264 266 266 267 268 268 268 268 269 269 269 269 269 268 267 266 264 263 262 261 259 257 255 254 252 250 247 244 240 236 234 235 237 240 243 246 246 245 245 245 246 247 248 250 250 251 252 253 255 256 257
271 271 269 268 271 273 273 272 271 270 268 265 263 261 259 257 257 257 257 258 259 259 260 260 259 259 259 260 260 260 261 262 264 265 267 269 270 272 273 273 274 275 275 275 275 274 273 272 269 267 265 264 262 260 257 255 253 250 249 247 245 243 241 237 233 232 234 235 238 242 244 244 244 244 244 246 247 248 249 250 250 252 254 255 255
270 269 269 270 271 273 272 271 271 271 270 268 266 263 260 259 259 260 261 262 262 262 262 263 263 262 262 263 264 264 265 265 266 268 270 272 273 275 277 278 279 280 280 280 279 278 277 275 272 270 269 267 263 259 255 253 251 248 245 244 243 241 240 237 233 230 230 232 234 238 242 244 244 244 244 244 245 246 248 249 250 251 253 254 255
272 271 270 269 270 271 271 270 269 269 268 267 266 265 263 261 261 262 264 264 265 265 265 265 265 265 265 266 267 268 268 269 270 271 273 274 276 278 280 281 283 284 285 285 284 283 282 280 278 276 273 268 263 258 254 251 249 246 242 240 240 239 238 236 232 228 227 229 231 235 239 243 245 245 245 244 244 245 247 249 251 252 254 255 256
274 273 270 268 269 270 269 268 268 267 267 266 266 266 264 262 262 264 266 267 267 267 267 267 267 268 268 269 270 271 271 272 273 274 276 277 279 281 282 284 286 288 289 290 290 290 289 287 285 281 275 269 264 259 255 250 247 243 239 237 237 236 236 235 231 227 225 225 228 232 237 240 243 245 245 245 245 246 247 250 251 253 254 255 256
274 274 273 270 270 270 269 268 267 267 268 267 266 265 264 264 265 267 268 268 268 268 268 268 269 270 271 271 271 272 272 274 276 278 279 280 281 282 284 286 288 290 292 294 295 295 295 293 290 284 276 271 266 261 255 250 245 240 236 235 234 233 233 233 230 226 223 222 224 229 234 238 240 242 244 245 245 246 247 249 250 251 252 254 255
275 276 275 273 271 270 269 268 267 268 268 267 266 265 265 267 268 269 269 269 269 268 269 270 271 272 272 273 272 273 274 276 278 280 281 282 283 284 286 288 290 292 294 296 298 299 299 298 293 285 278 273 268 261 255 249 243 238 234 232 231 231 231 231 229 225 222 221 221 225 231 236 238 240 241 243 244 245 245 246 247 248 250 251 252
274 275 275 274 273 272 271 270 269 268 269 268 266 266 267 268 269 269 269 268 267 268 269 270 271 271 272 273 273 274 276 279 281 282 283 285 286 287 289 291 292 294 296 299 301 303 304 302 296 288 281 274 268 261 255 248 242 237 232 229 229 229 229 230 228 224 221 220 220 222 228 234 236 238 240 241 242 243 243 244 244 245 246 248 251
272 273 273 274 275 274 274 273 271 270 270 268 266 267 268 269 269 269 269 268 267 267 269 270 270 270 272 272 274 276 278 280 283 285 286 288 289 290 292 293 294 296 299 301 304 306 308 307 300 291 283 275 267 260 254 248 241 235 231 228 227 227 227 228 227 223 220 220 220 221 226 231 235 237 238 239 240 241 241 242 242 243 245 248 251
271 272 273 273 274 275 275 275 274 273 271 269 268 268 268 269 270 270 271 272 271 268 267 268 269 270 272 273 274 275 277 280 283 286 288 290 292 293 295 296 297 299 301 304 306 309 312 311 305 295 286 276 266 259 254 248 239 232 228 225 224 224 225 226 226 223 220 219 219 220 223 229 233 235 236 237 238 239 240 242 243 244 246 249 252
271 272 272 273 274 274 275 276 276 275 272 270 269 269 270 271 271 271 273 277 276 271 267 267 269 270 272 274 275 275 277 279 283 286 289 292 294 296 297 298 299 301 303 306 309 312 315 315 310 301 289 277 266 259 252 244 236 230 226 223 222 223 224 224 223 222 219 218 219 220 222 225 230 234 236 236 238 239 241 242 244 246 248 250 252
271 271 272 273 273 274 275 276 276 275 274 272 271 271 272 272 272 272 275 278 278 275 270 268 269 270 272 274 275 276 277 279 282 286 289 292 295 297 299 301 302 303 305 308 311 314 317 319 317 308 295 281 267 258 248 239 232 229 227 224 222 224 225 223 221 220 218 217 217 219 221 223 227 232 235 237 238 239 241 243 244 246 248 250 252
270 271 271 272 273 274 274 275 275 275 275 274 274 273 274 273 273 273 275 277 279 278 274 270 270 270 271 273 275 276 278 280 283 287 290 292 294 297 300 302 304 305 308 310 313 315 319 322 322 317 304 287 271 258 248 237 231 228 228 227 225 226 228 225 221 219 218 217 217 219 221 222 225 229 233 236 238 239 241 243 245 247 249 250 252
268 269 270 271 272 272 272 273 273 274 275 275 275 274 274 274 274 274 275 276 278 279 277 273 271 270 269 271 275 278 280 281 284 287 290 292 294 296 299 303 305 307 309 312 314 317 320 323 326 324 314 296 277 264 253 242 233 228 227 227 227 228 230 229 223 219 218 217 217 218 221 223 225 227 230 233 236 238 240 243 245 248 250 251 253
265 266 268 269 269 270 270 271 272 273 273 274 274 274 274 274 274 274 275 276 277 279 278 275 272 271 270 272 276 280 282 284 285 287 290 292 293 295 298 302 305 309 310 312 315 317 320 324 328 329 323 307 288 272 260 248 238 231 227 227 227 227 228 228 225 221 218 218 218 218 220 223 226 229 231 232 234 236 238 240 243 246 248 250 252
262 264 265 266 267 268 268 269 270 271 272 272 272 272 272 273 274 274 274 275 276 277 278 276 274 273 273 274 277 280 283 285 286 288 290 292 293 294 296 300 304 309 311 313 315 317 319 323 327 331 329 317 299 281 266 252 241 233 229 228 228 227 226 226 226 223 220 219 219 220 220 222 225 228 231 234 235 236 237 238 240 242 244 247 249
260 261 262 264 265 266 267 268 269 269 269 270 270 270 271 272 272 273 273 274 275 277 278 277 276 275 275 276 278 280 283 284 286 288 290 292 294 294 295 297 302 307 311 313 314 316 319 322 326 330 332 324 309 291 275 262 249 239 233 230 229 228 225 224 224 224 222 220 220 221 222 223 225 227 229 232 235 237 238 240 241 243 244 246 248
259 260 261 262 263 264 265 266 267 267 267 267 267 268 269 270 270 271 272 272 274 275 277 277 277 276 277 278 279 280 282 284 285 287 290 292 294 295 294 295 299 304 309 312 313 315 317 321 325 329 332 328 316 299 282 267 257 248 240 235 231 228 226 224 222 222 222 222 222 222 223 224 225 227 229 231 233 236 238 241 243 245 247 248 249
258 259 260 260 261 262 263 264 265 265 265 265 265 266 266 267 268 269 270 271 272 274 275 276 277 277 278 279 280 280 282 284 285 286 289 291 293 295 294 294 296 300 305 309 312 313 314 318 322 326 330 330 323 307 287 269 256 248 244 239 234 229 226 224 222 221 221 222 223 223 224 225 226 228 230 231 233 235 237 240 242 245 247 249 251
Height
10616 10612 10607 10601 10596 10591 10587 10581 10574 10566 10556 10546 10539 10537 10536 10535 10534 10537 10542 10550 10561 10569 10577 10585 10592 10605 10615 10619 10624 10630 10633 10632 10634 10640 10647 10653 10659 10662 10665 10668 10673 10678 10684 10689 10692 10695 10699 10702 10706 10711 10715 10718 10719 10721 10724 10729 10732 10737 10742 10745 10747 10749 10750 10752 10753 10752 10753 10757 10761 10762 10762 10763 10764 10765 10766 10767 10768 10768 10768 10768 10768 10768 10767 10766 10765
10610 10605 10600 10594 10588 10583 10578 10573 10566 10558 10548 10538 10531 10527 10527 10528 10528 10532 10537 10543 10553 10564 10573 10579 10587 10599 10608 10610 10614 10620 10624 10625 10628 10634 10640 10645 10651 10655 10658 10661 10666 10671 10677 10682 10684 10687 10691 10694 10698 10702 10706 10709 10711 10714 10718 10722 10725 10728 10732 10735 10738 10740 10742 10744 10746 10746 10748 10751 10753 10755 10757 10757 10757 10758 10758 10759 10760 10761 10761 10761 10762 10762 10760 10759 10757
10604 10599 10593 10587 10581 10575 10571 10566 10559 10551 10542 10532 10524 10520 10520 10522 10525 10529 10536 10542 10549 10559 10569 10574 10582 10593 10600 10603 10607 10613 10617 10618 10622 10628 10632 10637 10643 10648 10651 10654 10658 10663 10668 10674 10677 10680 10684 10686 10689 10693 10697 10701 10703 10706 10710 10714 10717 10719 10722 10726 10730 10733 10735 10736 10738 10739 10742 10743 10745 10748 10751 10750 10751 10751 10751 10751 10753 10754 10754 10754 10754 10753 10752 10751 10750
10597 10593 10587 10580 10574 10569 10564 10560 10554 10545 10537 10527 10519 10514 10514 10518 10522 10526 10533 10540 10546 10556 10565 10570 10577 10587 10593 10597 10602 10608 10612 10613 10616 10620 10624 10631 10637 10641 10645 10649 10653 10657 10662 10666 10669 10672 10677 10679 10681 10685 10689 10693 10695 10697 10701 10705 10707 10709 10713 10717 10721 10725 10727 10727 10729 10733 10735 10735 10737 10740 10742 10744 10744 10743 10743 10745 10747 10747 10746 10746 10745 10744 10743 10742 10743
10591 10587 10582 10575 10569 10563 10559 10555 10549 10542 10533 10524 10516 10511 10510 10514 10519 10523 10530 10536 10544 10554 10562 10568 10574 10581 10587 10592 10598 10604 10606 10606 10607 10612 10618 10625 10632 10636 10640 10644 10648 10652 10655 10658 10661 10664 10669 10672 10674 10677 10680 10684 10686 10688 10692 10695 10698 10701 10705 10708 10711 10714 10718 10720 10723 10726 10726 10727 10730 10733 10734 10736 10735 10733 10736 10739 10739 10738 10737 10736 10735 10735 10735 10735 10736
10586 10582 10577 10571 10565 10559 10555 10551 10546 10539 10531 10522 10515 10509 10507 10512 10517 10521 10527 10533 10541 10551 10558 10563 10569 10574 10581 10587 10593 10598 10600 10601 10602 10608 10616 10621 10625 10630 10634 10638 10642 10647 10650 10651 10653 10656 10661 10664 10666 10669 10672 10676 10677 10679 10683 10687 10691 10694 10696 10698 10701 10705 10709 10714 10717 10717 10717 10720 10723 10724 10726 10726 10724 10726 10730 10731 10729 10729 10728 10727 10727 10727 10728 10729 10730
10582 10578 10574 10568 10562 10556 10551 10547 10543 10537 10530 10521 10513 10508 10506 10509 10515 10519 10524 10529 10537 10547 10553 10558 10564 10570 10576 10584 10589 10594 10599 10602 10603 10606 10612 10616 10619 10624 10629 10632 10637 10642 10645 10645 10645 10648 10653 10657 10658 10662 10666 10667 10667 10669 10675 10679 10682 10685 10687 10689 10693 10697 10702 10706 10707 10707 10709 10713 10714 10716 10718 10717 10716 10719 10722 10721 10721 10721 10720 10720 10720 10720 10722 10723 10724
10579 10574 10570 10565 10559 10553 10548 10544 10541 10536 10530 10521 10513 10508 10505 10507 10512 10518 10522 10527 10535 10543 10549 10554 10561 10566 10572 10581 10586 10592 10596 10600 10602 10602 10604 10608 10612 10617 10622 10626 10630 10635 10638 10638 10639 10641 10646 10650 10651 10655 10658 10658 10658 10660 10665 10669 10672 10676 10679 10682 10685 10689 10692 10694 10695 10698 10701 10704 10705 10708 10710 10709 10710 10712 10713 10713 10713 10713 10712 10712 10712 10714 10716 10717 10717
10575 10571 10567 10562 10557 10551 10545 10542 10539 10535 10530 10523 10515 10508 10505 10505 10510 10516 10521 10527 10534 10540 10546 10551 10557 10562 10568 10576 10582 10588 10592 10595 10598 10597 10597 10603 10608 10610 10614 10617 10621 10625 10629 10631 10632 10634 10637 10641 10643 10646 10648 10649 10651 10653 10655 10659 10663 10668 10672 10675 10677 10679 10681 10684 10687 10690 10692 10695 10697 10700 10702 10702 10703 10704 10705 10705 10705 10705 10705 10704 10706 10709 10710 10710 10710
10571 10567 10564 10559 10555 10549 10544 10540 10537 10535 10531 10525 10518 10511 10506 10505 10509 10516 10520 10526 10531 10537 10542 10548 10553 10558 10564 10571 10577 10583 10587 10589 10592 10592 10593 10599 10604 10607 10609 10612 10614 10617 10620 10623 10626 10627 10630 10633 10635 10638 10639 10641 10645 10646 10648 10651 10655 10660 10664 10666 10668 10669 10672 10677 10679 10681 10684 10687 10690 10692 10694 10694 10694 10695 10696 10696 10697 10698 10698 10699 10701 10702 10702 10702 10702
10568 10564 10560 10557 10553 10548 10543 10539 10536 10534 10532 10527 10522 10515 10510 10507 10511 10517 10521 10525 10530 10535 10541 10546 10550 10555 10561 10566 10573 10579 10582 10584 10586 10587 10588 10592 10597 10600 10603 10605 10608 10611 10614 10617 10620 10621 10622 10623 10625 10627 10630 10634 10638 10641 10643 10645 10647 10650 10653 10656 10660 10662 10665 10669 10671 10673 10676 10680 10682 10683 10685 10685 10685 10686 10687 10688 10690 10690 10691 10693 10694 10694 10694 10694 10695
10565 10561 10558 10554 10551 10547 10543 10539 10535 10534 10532 10529 10525 10521 10517 10515 10517 10523 10527 10529 10533 10536 10541 10545 10548 10553 10558 10563 10568 10574 10578 10581 10582 10583 10585 10587 10589 10593 10595 10596 10599 10604 10608 10611 10612 10613 10613 10614 10616 10618 10621 10626 10630 10633 10635 10637 10639 10640 10642 10648 10653 10655 10659 10662 10664 10666 10668 10672 10674 10674 10675 10676 10677 10678 10679 10681 10682 10682 10684 10686 10686 10685 10685 10686 10688
10562 10558 10556 10552 10549 10546 10542 10539 10535 10533 10532 10531 10528 10526 10525 10524 10525 10529 10533 10535 10538 10540 10543 10546 10549 10553 10557 10561 10566 10570 10574 10577 10579 10580 10581 10582 10583 10586 10588 10590 10592 10597 10601 10602 10603 10604 10606 10609 10610 10612 10616 10621 10624 10625 10626 10628 10630 10632 10632 10637 10644 10648 10652 10655 10657 10658 10660 10663 10665 10666 10668 10670 10670 10670 10671 10674 10675 10675 10676 10677 10677 10677 10678 10679 10681
10559 10556 10554 10551 10548 10545 10541 10538 10535 10533 10531 10532 10531 10529 10528 10530 10531 10533 10536 10539 10542 10544 10546 10548 10552 10555 10558 10561 10564 10567 10570 10573 10575 10576 10577 10578 10580 10581 10583 10586 10589 10592 10593 10594 10596 10598 10601 10605 10606 10607 10610 10615 10618 10619 10620 10621 10624 10627 10627 10629 10635 10640 10644 10647 10650 10651 10653 10656 10658 10659 10661 10662 10663 10663 10664 10666 10667 10668 10668 10669 10669 10670 10672 10673 10673
10556 10553 10551 10549 10547 10544 10540 10537 10535 10533 10531 10531 10532 10531 10530 10531 10533 10535 10537 10540 10542 10544 10547 10549 10552 10555 10558 10561 10564 10565 10568 10571 10572 10573 10573 10575 10577 10579 10581 10583 10585 10587 10587 10589 10592 10595 10598 10601 10602 10603 10604 10607 10611 10613 10614 10616 10619 10622 10623 10624 10627 10631 10635 10640 10643 10644 10646 10648 10650 10652 10653 10654 10656 10656 10657 10658 10660 10660 10661 10662 10662 10663 10665 10666 10665
10552 10550 10548 10547 10545 10542 10540 10537 10534 10532 10530 10529 10530 10532 10532 10531 10532 10534 10537 10539 10541 10543 10545 10547 10550 10553 10557 10560 10563 10564 10566 10569 10570 10571 10571 10573 10575 10577 10579 10580 10580 10582 10583 10584 10588 10591 10593 10596 10598 10599 10599 10601 10603 10605 10607 10610 10612 10615 10617 10619 10621 10623 10627 10632 10634 10637 10639 10640 10642 10644 10645 10647 10648 10648 10649 10651 10653 10654 10655 10655 10655 10656 10658 10658 10658
10548 10546 10544 10543 10542 10540 10539 10536 10533 10531 10529 10528 10528 10530 10532 10532 10532 10533 10534 10536 10539 10542 10544 10546 10548 10551 10555 10558 10561 10562 10564 10566 10566 10568 10570 10571 10573 10575 10577 10577 10577 10578 10579 10580 10582 10585 10588 10591 10593 10594 10595 10596 10597 10598 10599 10602 10604 10607 10610 10613 10615 10616 10618 10622 10625 10628 10631 10633 10635 10636 10638 10639 10640 10640 10642 10644 10646 10647 10647 10647 10648 10649 10650 10651 10651
10544 10542 10540 10539 10538 10537 10536 10534 10532 10530 10528 10527 10526 10527 10529 10531 10532 10532 10533 10533 10534 10538 10542 10545 10546 10549 10552 10555 10558 10559 10561 10562 10563 10564 10566 10567 10569 10571 10573 10573 10572 10573 10574 10575 10577 10579 10581 10584 10587 10589 10590 10590 10591 10592 10592 10594 10596 10598 10602 10605 10608 10609 10611 10614 10617 10620 10623 10625 10627 10629 10630 10632 10632 10633 10634 10636 10639 10640 10640 10640 10641 10642 10643 10644 10644
10539 10537 10536 10535 10533 10533 10532 10531 10531 10528 10527 10526 10524 10524 10525 10527 10530 10531 10532 10532 10531 10534 10538 10542 10545 10547 10549 10552 10554 10556 10557 10558 10559 10561 10562 10563 10564 10566 10567 10567 10567 10567 10569 10570 10572 10572 10574 10577 10579 10581 10583 10584 10585 10585 10586 10587 10588 10590 10593 10595 10599 10602 10604 10607 10610 10613 10615 10617 10620 10621 10623 10624 10624 10625 10626 10629 10632 10632 10632 10632 10633 10634 10636 10636 10636
10533 10532 10532 10530 10529 10529 10528 10527 10527 10526 10525 10524 10522 10522 10522 10522 10525 10527 10529 10530 10531 10533 10535 10539 10543 10545 10547 10549 10550 10551 10551 10553 10555 10556 10557 10558 10559 10560 10561 10561 10561 10562 10563 10564 10565 10565 10567 10569 10571 10573 10575 10577 10578 10579 10579 10580 10581 10582 10584 10587 10590 10592 10595 10598 10601 10604 10607 10609 10612 10614 10615 10615 10615 10616 10618 10621 10623 10623 10623 10624 10625 10626 10627 10628 10628
10527 10526 10526 10526 10524 10524 10524 10523 10523 10522 10522 10521 10520 10519 10519 10519 10520 10522 10524 10526 10528 10531 10533 10536 10539 10541 10544 10545 10547 10547 10547 10548 10549 10550 10551 10551 10552 10554 10554 10554 10555 10556 10557 10557 10558 10558 10558 10560 10563 10565 10567 10569 10570 10571 10571 10573 10574 10575 10576 10578 10581 10583 10585 10589 10592 10595 10598 10600 10603 10605 10606 10607 10607 10608 10610 10613 10615 10615 10614 10615 10617 10618 10619 10619 10619
10521 10521 10520 10521 10520 10519 10520 10519 10519 10519 10519 10518 10518 10517 10516 10516 10516 10517 10519 10521 10523 10525 10527 10530 10532 10535 10537 10539 10542 10543 10544 10544 10545 10546 10546 10545 10545 10546 10547 10548 10549 10548 10548 10549 10551 10551 10550 10551 10553 10556 10558 10560 10563 10564 10564 10566 10568 10569 10569 10569 10572 10573 10575 10579 10582 10585 10588 10591 10593 10596 10598 10599 10599 10599 10601 10605 10608 10607 10606 10607 10608 10610 10610 10610 10611
10515 10515 10515 10515 10515 10514 10515 10515 10515 10515 10515 10515 10515 10514 10513 10513 10512 10513 10514 10515 10517 10519 10520 10522 10524 10527 10529 10531 10533 10535 10536 10537 10538 10539 10540 10540 10540 10540 10541 10541 10541 10540 10540 10541 10542 10542 10542 10543 10545 10547 10548 10550 10554 10556 10557 10557 10559 10560 10561 10562 10562 10563 10565 10568 10571 10574 10577 10580 10584 10587 10589 10591 10591 10591 10593 10597 10600 10599 10599 10599 10599 10600 10601 10601 10601
10508 10509 10509 10509 10509 10509 10510 10510 10510 10510 10511 10510 10511 10511 10511 10510 10509 10509 10509 10510 10511 10513 10514 10516 10517 10518 10520 10521 10523 10524 10526 10527 10528 10529 10530 10531 10532 10533 10533 10534 10532 10532 10532 10532 10532 10533 10534 10536 10538 10539 10539 10540 10542 10545 10548 10549 10549 10550 10552 10553 10553 10554 10556 10558 10560 10562 10565 10569 10574 10578 10580 10582 10582 10582 10584 10588 10591 10591 10591 10591 10591 10590 10590 10590 10591
10503 10503 10503 10503 10503 10503 10504 10504 10505 10505 10505 10506 10506 10506 10507 10507 10507 10506 10505 10505 10506 10506 10508 10509 10511 10512 10513 10514 10515 10515 10516 10517 10517 10518 10519 10520 10521 10521 10522 10522 10521 10521 10521 10521 10521 10523 10524 10526 10528 10530 10530 10529 10530 10530 10533 10536 10539 10539 10540 10541 10542 10544 10547 10549 10550 10551 10554 10558 10564 10568 10570 10572 10574 10574 10574 10579 10583 10583 10582 10583 10583 10582 10581 10581 10582
10498 10496 10496 10496 10496 10497 10498 10498 10499 10499 10500 10500 10500 10501 10502 10502 10503 10503 10502 10502 10501 10501 10502 10503 10504 10505 10506 10508 10509 10509 10509 10510 10510 10510 10510 10511 10511 10511 10510 10510 10510 10510 10510 10510 10510 10511 10512 10513 10514 10514 10514 10515 10515 10515 10517 10520 10522 10524 10526 10528 10530 10533 10535 10538 10540 10542 10544 10547 10552 10557 10560 10562 10565 10566 10566 10568 10573 10574 10574 10574 10574 10574 10573 10572 10573
10490 10489 10489 10490 10489 10489 10491 10491 10492 10493 10494 10494 10495 10495 10496 10496 10497 10498 10498 10498 10497 10497 10497 10497 10498 10498 10499 10501 10502 10502 10503 10503 10504 10504 10503 10503 10503 10502 10502 10500 10500 10500 10499 10499 10498 10497 10498 10497 10496 10495 10495 10495 10495 10497 10500 10503 10504 10507 10511 10515 10518 10521 10523 10527 10530 10533 10535 10537 10541 10546 10551 10553 10556 10558 10558 10559 10562 10565 10565 10565 10566 10566 10566 10566 10566
10480 10481 10482 10482 10481 10482 10484 10485 10485 10486 10487 10488 10488 10489 10489 10490 10491 10491 10492 10492 10492 10491 10492 10492 10492 10493 10493 10494 10494 10495 10496 10496 10496 10496 10496 10496 10495 10494 10493 10492 10491 10491 10489 10488 10487 10485 10483 10481 10479 10478 10478 10478 10478 10479 10483 10486 10487 10490 10495 10500 10504 10508 10511 10515 10519 10522 10525 10527 10530 10536 10541 10544 10547 10549 10550 10551 10553 10556 10557 10557 10557 10558 10558 10558 10559
10470 10472 10474 10474 10474 10475 10476 10477 10478 10478 10479 10480 10481 10482 10483 10483 10484 10484 10485 10486 10485 10486 10486 10486 10486 10487 10487 10488 10488 10488 10489 10488 10488 10488 10488 10488 10488 10487 10486 10485 10483 10482 10480 10479 10476 10473 10470 10468 10466 10465 10464 10464 10465 10466 10468 10471 10472 10474 10478 10484 10491 10496 10499 10503 10507 10511 10514 10517 10520 10525 10530 10534 10538 10540 10542 10543 10543 10546 10549 10549 10549 10549 10549 10550 10550
10461 10463 10465 10466 10466 10467 10469 10470 10471 10471 10472 10473 10474 10475 10475 10476 10477 10477 10478 10478 10478 10479 10479 10479 10479 10480 10480 10480 10481 10481 10481 10481 10481 10481 10480 10480 10479 10479 10478 10476 10475 10473 10472 10469 10466 10462 10458 10455 10453 10452 10450 10449 10450 10450 10450 10452 10455 10456 10460 10466 10473 10480 10486 10490 10494 10500 10504 10506 10509 10515 10519 10524 10528 10531 10533 10534 10535 10537 10541 10542 10541 10541 10540 10541 10542
10455 10455 10457 10459 10459 10459 10460 10462 10463 10463 10464 10465 10466 10467 10468 10468 10469 10469 10470 10470 10470 10471 10471 10471 10471 10472 10472 10472 10472 10472 10472 10473 10473 10472 10472 10471 10470 10470 10468 10467 10466 10464 10462 10459 10455 10451 10448 10444 10441 10439 10438 10436 10435 10434 10431 10431 10433 10436 10440 10447 10453 10460 10469 10476 10482 10488 10495 10496 10497 10502 10509 10514 10519 10522 10523 10525 10528 10530 10532 10533 10532 10531 10531 10534 10536
10448 10449 10451 10451 10451 10451 10451 10454 10455 10455 10456 10457 10458 10459 10459 10460 10460 10461 10462 10462 10462 10463 10462 10463 10463 10463 10464 10463 10464 10464 10463 10463 10463 10462 10462 10461 10460 10459 10457 10456 10454 10452 10450 10447 10443 10440 10436 10433 10429 10426 10425 10422 10419 10416 10413 10411 10412 10414 10419 10427 10434 10439 10449 10460 10469 10476 10484 10488 10487 10490 10497 10503 10508 10513 10514 10517 10520 10522 10523 10524 10522 10521 10524 10529 10531
10442 10444 10445 10444 10444 10443 10443 10445 10446 10447 10448 10448 10450 10450 10451 10452 10452 10453 10454 10453 10454 10454 10454 10455 10455 10455 10455 10455 10455 10455 10454 10454 10453 10452 10451 10450 10448 10447 10444 10442 10441 10438 10436 10433 10429 10426 10422 10418 10414 10410 10408 10405 10400 10395 10392 10390 10391 10394 10398 10406 10415 10421 10428 10440 10454 10464 10472 10479 10480 10480 10485 10492 10497 10502 10506 10508 10511 10513 10514 10514 10512 10513 10519 10523 10523
10435 10437 10437 10437 10437 10436 10436 10437 10437 10438 10439 10440 10441 10442 10442 10444 10444 10444 10445 10445 10445 10445 10445 10445 10446 10446 10446 10446 10445 10445 10444 10444 10443 10441 10440 10438 10436 10434 10431 10428 10426 10423 10421 10417 10414 10410 10405 10400 10396 10391 10388 10385 10378 10373 10370 10369 10370 10375 10380 10386 10395 10403 10410 10420 10436 10449 10459 10469 10473 10472 10474 10479 10484 10491 10497 10500 10502 10503 10502 10503 10504 10508 10512 10514 10514
10427 10429 10430 10430 10430 10429 10429 10430 10430 10430 10431 10431 10432 10433 10434 10435 10436 10435 10436 10436 10436 10436 10436 10436 10436 10437 10437 10436 10435 10435 10434 10433 10432 10430 10429 10426 10424 10421 10417 10414 10411 10407 10405 10401 10397 10393 10387 10381 10376 10370 10367 10363 10355 10351 10350 10349 10350 10356 10363 10368 10375 10384 10393 10403 10417 10433 10446 10457 10464 10465 10465 10468 10473 10480 10487 10490 10492 10491 10490 10492 10497 10501 10503 10504 10505
10417 10419 10421 10421 10422 10422 10421 10422 10422 10422 10423 10423 10424 10425 10426 10427 10427 10427 10427 10426 10426 10427 10427 10426 10426 10427 10427 10427 10426 10425 10424 10422 10421 10419 10417 10415 10412 10408 10404 10400 10396 10392 10389 10385 10380 10375 10369 10363 10357 10351 10346 10341 10335 10332 10331 10332 10334 10340 10347 10352 10357 10366 10378 10388 10401 10418 10433 10446 10455 10458 10458 10460 10463 10468 10474 10478 10480 10479 10479 10484 10491 10493 10494 10495 10496
10405 10408 10412 10412 10413 10414 10413 10414 10415 10415 10415 10416 10416 10417 10417 10417 10418 10418 10418 10417 10417 10417 10417 10417 10417 10418 10418 10417 10416 10415 10414 10412 10410 10408 10406 10403 10400 10397 10392 10387 10382 10378 10374 10369 10364 10359 10353 10347 10340 10334 10328 10323 10318 10316 10316 10317 10320 10326 10332 10338 10344 10353 10363 10374 10388 10404 10419 10433 10445 10450 10451 10452 10455 10458 10460 10465 10468 10470 10473 10478 10482 10483 10484 10485 10487
10395 10398 10402 10403 10404 10405 10405 10406 10407 10407 10408 10409 10408 10409 10408 10408 10409 10409 10409 10408 10408 10408 10408 10408 10409 10409 10409 10408 10407 10406 10404 10402 10400 10398 10395 10393 10390 10386 10381 10376 10371 10366 10361 10356 10351 10345 10339 10333 10326 10319 10313 10308 10305 10302 10302 10304 10308 10314 10320 10326 10333 10341 10349 10360 10374 10390 10405 10420 10435 10442 10443 10444 10447 10448 10448 10452 10458 10462 10467 10470 10471 10472 10474 10476 10478
10387 10389 10391 10392 10393 10394 10395 10396 10397 10398 10400 10400 10400 10400 10400 10400 10401 10400 10400 10399 10399 10399 10399 10400 10401 10400 10400 10400 10398 10397 10395 10393 10390 10388 10385 10383 10380 10375 10371 10366 10360 10355 10350 10344 10338 10332 10326 10320 10313 10305 10300 10296 10293 10291 10291 10293 10297 10303 10309 10316 10323 10330 10338 10349 10363 10378 10393 10409 10424 10433 10435 10436 10438 10438 10439 10443 10448 10453 10457 10459 10460 10463 10465 10467 10469
10377 10378 10380 10381 10383 10384 10384 10386 10387 10389 10391 10391 10392 10392 10391 10392 10392 10391 10391 10391 10390 10390 10390 10391 10392 10391 10391 10391 10389 10388 10386 10383 10381 10379 10376 10373 10370 10365 10361 10355 10349 10345 10339 10333 10327 10321 10315 10309 10301 10294 10289 10285 10283 10281 10281 10283 10288 10294 10300 10308 10314 10321 10330 10340 10352 10367 10383 10397 10412 10424 10427 10427 10429 10431 10432 10435 10438 10442 10446 10448 10451 10454 10456 10458 10460
10366 10368 10370 10371 10372 10373 10374 10375 10376 10379 10381 10381 10382 10382 10382 10383 10383 10382 10382 10382 10381 10382 10382 10381 10382 10382 10382 10382 10380 10379 10377 10374 10372 10369 10366 10363 10361 10356 10351 10346 10340 10335 10330 10324 10318 10311 10305 10298 10291 10284 10279 10276 10274 10273 10273 10276 10281 10286 10293 10299 10306 10315 10322 10329 10340 10356 10373 10386 10400 10412 10417 10417 10419 10422 10425 10426 10428 10431 10434 10437 10440 10444 10447 10450 10453
10356 10358 10359 10360 10362 10363 10363 10364 10366 10368 10370 10371 10372 10372 10373 10374 10373 10372 10373 10373 10372 10373 10373 10373 10373 10373 10373 10373 10372 10370 10368 10366 10364 10361 10357 10354 10351 10347 10343 10337 10331 10326 10321 10315 10309 10303 10297 10290 10282 10276 10272 10269 10267 10266 10266 10269 10274 10279 10285 10291 10299 10306 10311 10318 10331 10348 10364 10377 10388 10399 10405 10407 10409 10411 10414 10417 10419 10422 10424 10427 10430 10435 10440 10443 10446
10345 10346 10348 10350 10351 10351 10352 10353 10355 10357 10358 10360 10361 10361 10363 10364 10363 10364 10365 10363 10361 10363 10365 10365 10364 10364 10364 10364 10363 10361 10359 10357 10356 10353 10349 10346 10343 10339 10334 10329 10324 10319 10313 10307 10301 10295 10289 10283 10275 10270 10266 10263 10261 10260 10261 10264 10267 10272 10277 10284 10291 10296 10301 10311 10326 10340 10354 10366 10376 10384 10391 10395 10398 10400 10404 10409 10412 10413 10416 10419 10423 10428 10432 10435 10438
10332 10334 10337 10339 10339 10340 10342 10342 10343 10345 10346 10349 10350 10351 10352 10352 10352 10354 10356 10353 10351 10354 10356 10356 10356 10355 10355 10355 10354 10352 10351 10349 10347 10346 10342 10338 10335 10331 10327 10322 10317 10312 10306 10300 10293 10287 10282 10276 10270 10264 10260 10258 10257 10256 10257 10259 10261 10266 10271 10277 10284 10287 10293 10305 10319 10330 10342 10355 10364 10370 10377 10384 10390 10393 10396 10400 10403 10406 10408 10413 10417 10421 10424 10428 10431
10320 10323 10325 10327 10328 10330 10330 10330 10332 10333 10335 10338 10339 10340 10341 10341 10341 10345 10346 10343 10341 10344 10346 10347 10347 10347 10346 10346 10345 10344 10342 10341 10340 10338 10336 10331 10328 10324 10320 10315 10311 10305 10300 10294 10288 10281 10276 10271 10265 10259 10256 10254 10254 10253 10255 10256 10258 10261 10266 10272 10278 10282 10287 10298 10312 10323 10333 10344 10353 10359 10366 10374 10381 10385 10386 10390 10395 10399 10402 10406 10410 10414 10418 10421 10422
10309 10311 10314 10316 10317 10318 10318 10319 10320 10322 10325 10327 10328 10329 10330 10329 10331 10334 10335 10333 10333 10334 10336 10337 10338 10337 10337 10337 10336 10335 10334 10333 10332 10331 10329 10325 10321 10317 10313 10309 10305 10300 10295 10290 10284 10277 10271 10267 10262 10256 10253 10251 10250 10251 10253 10255 10256 10259 10263 10269 10274 10279 10284 10294 10306 10317 10326 10334 10343 10351 10359 10365 10370 10373 10376 10381 10386 10391 10395 10399 10404 10408 10411 10413 10413
10297 10300 10304 10306 10305 10305 10306 10307 10309 10311 10314 10316 10317 10317 10318 10318 10321 10323 10324 10324 10324 10323 10325 10328 10328 10327 10328 10328 10327 10326 10325 10325 10325 10324 10322 10319 10316 10312 10307 10304 10300 10296 10292 10287 10281 10275 10268 10263 10259 10255 10251 10248 10247 10248 10251 10254 10256 10258 10261 10265 10269 10275 10282 10291 10300 10310 10319 10327 10335 10344 10351 10355 10358 10361 10367 10373 10379 10384 10389 10394 10398 10400 10401 10402 10403
10286 10291 10294 10294 10293 10292 10293 10296 10298 10300 10303 10304 10305 10305 10306 10308 10310 10312 10313 10315 10314 10313 10315 10317 10318 10319 10319 10320 10319 10318 10317 10317 10317 10316 10315 10313 10310 10306 10302 10298 10296 10292 10288 10284 10280 10274 10268 10262 10257 10254 10250 10247 10245 10245 10247 10251 10254 10256 10258 10261 10266 10272 10279 10286 10293 10302 10311 10320 10328 10334 10339 10344 10347 10353 10360 10367 10372 10378 10382 10385 10387 10389 10390 10391 10392
10276 10280 10282 10284 10282 10279 10281 10285 10287 10289 10291 10293 10293 10293 10295 10297 10299 10301 10303 10304 10304 10304 10304 10306 10308 10310 10310 10311 10311 10310 10309 10309 10309 10309 10308 10306 10304 10301 10297 10294 10291 10288 10285 10282 10278 10274 10269 10263 10257 10253 10250 10247 10245 10244 10245 10247 10251 10255 10257 10260 10264 10269 10275 10281 10287 10295 10304 10312 10318 10322 10327 10332 10338 10345 10352 10357 10362 10366 10370 10373 10376 10379 10381 10383 10383
10264 10268 10272 10273 10270 10268 10270 10272 10274 10277 10280 10280 10280 10282 10285 10287 10288 10290 10292 10293 10294 10295 10294 10295 10299 10301 10301 10302 10302 10301 10301 10301 10301 10301 10301 10299 10298 10295 10292 10289 10287 10285 10282 10279 10276 10273 10269 10265 10259 10254 10251 10248 10245 10244 10244 10245 10248 10252 10256 10258 10261 10266 10272 10277 10283 10289 10296 10302 10307 10311 10317 10324 10330 10337 10343 10348 10351 10355 10360 10364 10368 10371 10373 10375 10374
10250 10255 10260 10260 10258 10257 10258 10259 10261 10264 10266 10266 10268 10271 10274 10276 10277 10279 10281 10283 10284 10285 10284 10286 10289 10292 10293 10293 10292 10292 10292 10292 10293 10294 10294 10293 10292 10290 10286 10284 10283 10281 10279 10277 10274 10272 10269 10266 10261 10256 10252 10249 10247 10245 10244 10244 10245 10248 10252 10255 10259 10263 10268 10273 10278 10282 10286 10290 10296 10302 10310 10316 10322 10328 10335 10339 10342 10347 10352 10357 10361 10364 10366 10366 10365